SCP
0 0 0 0 0 0 0 0 0 0 0 0 0 0 0 0 0 0 0 0 0 0
0 0 0 0 0 0 0 0 0 0 0 0 0 0 0 0 0 0 0 0 0 0
0 0 0 0 0 0 0 0 0 0 0 0 0 0 0 0 0 0 0 0 0 0
0 0 0 0 0 0 0 0 0 0 0 0 0 0 0 0 0 0 0 0 0 0
0 0 0 0 0 0 0 0 0 0 0 0 0 0 0 0 0 0 0 0 0 0
0 0 0 0 0 0 0 0 0 0 0 0 0 0 0 0 0 0 0 0 0 0
0 0 0 0 0 0 0 0 0 0 0 0 0 0 0 0 0 0 0 0 0 0
0 0 0 0 0 0 0 0 0 0 0 0 0 0 0 0 0 0 0 0 0 0
0 0 0 0 0 0 0 0 0 0 0 0 0 0 0 0 0 0 0 0 0 0
0 0 0 0 0 0 0 0 0 0 0 0 0 0 0 0 0 0 0 0 0 0
0 0 0 0 0 0 0 0 0 0 0 0 0 0 0 0 0 0 0 0 0 0
0 0 0 0 0 0 0 0 0 0 0 0 0 0 0 0 0 0 0 0 0 0
0 0 0 0 0 0 0 0 0 0 0 0 0 0 0 0 0 0 0 0 0 0
0 0 0 0 0 0 0 0 0 0 0 0 0 0 0 0 0 0 0 0 0 0
Wind_Speed_500mb
54 53 53 54 55 57 60 59 56 50 42 36 35 33 32 29 29 28 29 27 28 28
46 46 45 47 50 51 51 51 51 47 43 42 37 35 34 29 30 29 27 28 27 27
38 38 38 41 45 51 50 52 51 49 48 44 44 34 31 35 32 29 26 25 24 24
31 30 31 34 38 45 48 52 51 49 44 44 39 33 28 26 22 22 23 24 23 22
24 22 26 31 34 41 44 50 52 50 51 52 47 38 35 33 30 30 28 25 25 22
19 20 24 28 33 38 46 52 50 49 49 43 39 37 31 31 27 25 25 25 21 19
10 16 21 26 33 41 47 53 53 49 40 37 34 26 31 28 26 25 24 22 21 21
11 18 25 31 37 42 46 46 43 38 37 35 31 36 31 25 27 25 27 26 23 23
10 15 22 27 27 31 35 41 39 38 33 35 36 29 27 32 34 31 30 27 25 23
8 14 19 23 27 29 28 26 26 27 29 28 28 31 35 36 33 28 25 23 22 21
6 8 11 12 14 15 17 19 21 22 24 27 30 30 27 24 25 22 25 24 23 21
5 5 7 11 13 14 16 18 20 21 23 26 27 25 25 29 28 25 21 18 15 14
4 6 8 11 13 15 17 19 19 20 21 21 23 23 28 31 30 21 16 12 12 14
7 8 10 13 14 15 15 16 16 16 18 21 22 23 25 28 16 16 14 13 13 15
Wind_Direction_500mb
236 238 244 241 238 232 230 227 223 219 215 222 225 222 226 225 223 227 229 232 234 234
239 242 239 240 242 238 232 227 222 217 216 215 213 223 220 224 227 226 231 228 230 233
239 245 243 236 237 237 229 222 215 215 213 211 212 206 222 231 238 230 227 231 229 231
244 248 237 228 232 230 221 213 209 211 207 213 208 207 213 215 221 227 231 234 231 227
246 246 224 221 222 223 214 206 208 205 203 214 224 219 224 232 230 222 223 220 225 227
239 228 219 219 217 213 203 195 200 213 216 208 211 213 218 218 218 216 220 223 223 227
207 209 212 210 206 199 191 200 205 217 225 220 214 203 206 224 226 220 218 221 229 237
207 203 200 197 193 203 208 209 218 214 209 206 200 208 226 218 215 219 226 231 240 247
183 189 186 199 210 206 209 212 212 209 210 206 216 210 203 218 224 230 239 242 248 252
149 176 193 202 201 202 206 209 210 212 217 215 209 214 224 234 242 239 233 229 227 236
136 166 179 186 194 200 207 213 217 221 226 232 235 234 229 221 217 218 218 227 242 240
138 174 197 207 215 221 225 227 227 230 232 237 239 224 210 204 209 213 221 226 235 248
248 230 233 237 237 240 240 240 240 239 236 228 227 216 214 207 213 206 217 229 248 243
277 266 256 254 253 250 243 240 235 224 230 225 225 213 212 199 194 220 217 232 247 247
Wind_Speed_850mb
54 53 53 54 55 57 60 59 56 50 42 36 35 33 32 29 29 28 29 27 28 28
46 46 45 47 50 51 51 51 51 47 43 42 37 35 34 29 30 29 27 28 27 27
38 38 38 41 45 51 50 52 51 49 48 44 44 34 31 35 32 29 26 25 24 24
31 30 31 34 38 45 48 52 51 49 44 44 39 33 28 26 22 22 23 24 23 22
24 22 26 31 34 41 44 50 52 50 51 52 47 38 35 33 30 30 28 25 25 22
19 20 24 28 33 38 46 52 50 49 49 43 39 37 31 31 27 25 25 25 21 19
10 16 21 26 33 41 47 53 53 49 40 37 34 26 31 28 26 25 24 22 21 21
11 18 25 31 37 42 46 46 43 38 37 35 31 36 31 25 27 25 27 26 23 23
10 15 22 27 27 31 35 41 39 38 33 35 36 29 27 32 34 31 30 27 25 23
8 14 19 23 27 29 28 26 26 27 29 28 28 31 35 36 33 28 25 23 22 21
6 8 11 12 14 15 17 19 21 22 24 27 30 30 27 24 25 22 25 24 23 21
5 5 7 11 13 14 16 18 20 21 23 26 27 25 25 29 28 25 21 18 15 14
4 6 8 11 13 15 17 19 19 20 21 21 23 23 28 31 30 21 16 12 12 14
7 8 10 13 14 15 15 16 16 16 18 21 22 23 25 28 16 16 14 13 13 15
Wind_Direction_850mb
236 238 244 241 238 232 230 227 223 219 215 222 225 222 226 225 223 227 229 232 234 234
239 242 239 240 242 238 232 227 222 217 216 215 213 223 220 224 227 226 231 228 230 233
239 245 243 236 237 237 229 222 215 215 213 211 212 206 222 231 238 230 227 231 229 231
244 248 237 228 232 230 221 213 209 211 207 213 208 207 213 215 221 227 231 234 231 227
246 246 224 221 222 223 214 206 208 205 203 214 224 219 224 232 230 222 223 220 225 227
239 228 219 219 217 213 203 195 200 213 216 208 211 213 218 218 218 216 220 223 223 227
207 209 212 210 206 199 191 200 205 217 225 220 214 203 206 224 226 220 218 221 229 237
207 203 200 197 193 203 208 209 218 214 209 206 200 208 226 218 215 219 226 231 240 247
183 189 186 199 210 206 209 212 212 209 210 206 216 210 203 218 224 230 239 242 248 252
149 176 193 202 201 202 206 209 210 212 217 215 209 214 224 234 242 239 233 229 227 236
136 166 179 186 194 200 207 213 217 221 226 232 235 234 229 221 217 218 218 227 242 240
138 174 197 207 215 221 225 227 227 230 232 237 239 224 210 204 209 213 221 226 235 248
248 230 233 237 237 240 240 240 240 239 236 228 227 216 214 207 213 206 217 229 248 243
277 266 256 254 253 250 243 240 235 224 230 225 225 213 212 199 194 220 217 232 247 247